Los Alamos, NM

1:42 AM MDT on April 22, 2018 (GMT -0600)
Los Alamos

Weather History for KLAM - January, 2013

Change the Weather History Date:

Tuesday, January 22, 2013

  Actual Average Record
Temperature  
Mean Temperature 38 °F -  
Max Temperature 49 °F 39 °F 56 °F (1970)
Min Temperature 26 °F 16 °F -1 °F (1966)
Degree Days  
Heating Degree Days 28    
Moisture  
Dew Point 12 °F    
Average Humidity 35    
Maximum Humidity 55    
Minimum Humidity 20    
Precipitation  
Precipitation 0.00 in - - ()
Sea Level Pressure  
Sea Level Pressure 30.31 in    
Wind  
Wind Speed 1 mph (NNE)    
Max Wind Speed 8 mph    
Max Gust Speed -    
Visibility 10 miles    
Events      
Averages and records for this station are not official NWS values.
T = Trace of Precipitation, MM = Missing Value Source: NWS Daily Summary

Daily Weather History Graph

Daily Weather History Graph

Search for Another Location

Airport or City:

Astronomy

Jan. 22, 2013 Rise Set
Actual Time 7:11 AM MST 5:22 PM MST
Civil Twilight 6:44 AM MST 5:49 PM MST
Nautical Twilight 6:13 AM MST 6:20 PM MST
Astronomical Twilight 5:42 AM MST 6:51 PM MST
Moon 1:48 PM MST 3:34 AM MST
Length of Visible Light 11h 05m
Length of Day
10h 10m
Waxing Gibbous, 83% of the Moon is Illuminated
Jan 22
Waxing Gibbous
Jan 26
Full
Feb 3
Last Quarter
Feb 10
New
Feb 17
First Quarter

Hourly Weather History & Observations

Time (MST) Temp. Windchill Dew Point Humidity Pressure Visibility Wind Dir Wind Speed Gust Speed Precip Events Conditions
12:15 AM 32.0 °F - 13.1 °F 46% 30.28 in 10.0 mi Calm Calm - N/A   Clear
12:55 AM 31.6 °F - 13.1 °F 46% 30.28 in 10.0 mi Calm Calm - N/A   Clear
1:15 AM 30.4 °F - 13.1 °F 49% 30.28 in 10.0 mi Calm Calm - N/A   Clear
1:35 AM 30.0 °F - 13.3 °F 50% 30.29 in 10.0 mi Calm Calm - N/A   Clear
1:55 AM 30.6 °F - 12.7 °F 48% 30.29 in 10.0 mi Calm Calm - N/A   Clear
2:15 AM 31.1 °F - 11.5 °F 44% 30.29 in 10.0 mi Calm Calm - N/A   Clear
2:35 AM 30.6 °F - 13.5 °F 49% 30.29 in 10.0 mi Calm Calm - N/A   Clear
2:55 AM 32.0 °F 28.7 °F 11.7 °F 43% 30.29 in 10.0 mi NNW 3.5 mph - N/A   Clear
3:15 AM 30.6 °F - 11.3 °F 45% 30.29 in 10.0 mi Calm Calm - N/A   Clear
3:35 AM 30.7 °F 27.3 °F 11.8 °F 46% 30.28 in 10.0 mi NNE 3.5 mph - N/A   Clear
3:55 AM 30.0 °F 23.2 °F 11.8 °F 47% 30.28 in 10.0 mi North 6.9 mph - N/A   Clear
4:15 AM 31.5 °F 24.9 °F 11.8 °F 44% 30.29 in 10.0 mi North 6.9 mph - N/A   Clear
4:35 AM 31.6 °F 27.0 °F 11.3 °F 43% 30.29 in - NNE 4.6 mph - N/A   Clear
4:55 AM 29.7 °F 26.1 °F 11.3 °F 46% 30.29 in 10.0 mi NNE 3.5 mph - N/A   Clear
5:15 AM 29.5 °F 24.5 °F 11.8 °F 48% 30.29 in 10.0 mi North 4.6 mph - N/A   Clear
5:35 AM 31.6 °F - 10.9 °F 42% 30.30 in 10.0 mi Calm Calm - N/A   Clear
5:55 AM 32.0 °F - 10.0 °F 40% 30.30 in 10.0 mi Calm Calm - N/A   Clear
6:15 AM 27.9 °F - 10.9 °F 49% 30.30 in 10.0 mi Calm Calm - N/A   Clear
6:35 AM 28.4 °F - 10.4 °F 47% 30.31 in 10.0 mi Calm Calm - N/A   Clear
6:55 AM 32.0 °F - 9.5 °F 39% 30.31 in 10.0 mi Calm Calm - N/A   Clear
7:15 AM 28.2 °F - 10.6 °F 48% 30.31 in 10.0 mi Calm Calm - N/A   Clear
7:35 AM 27.0 °F - 11.8 °F 53% 30.31 in 10.0 mi Calm Calm - N/A   Clear
7:55 AM 26.4 °F - 12.0 °F 55% 30.31 in 10.0 mi Calm Calm - N/A   Clear
8:15 AM 26.8 °F - 11.3 °F 52% 30.32 in 10.0 mi Calm Calm - N/A   Clear
8:35 AM 34.7 °F - 8.1 °F 33% 30.32 in 10.0 mi Calm Calm - N/A   Clear
8:55 AM 32.0 °F - 10.2 °F 40% 30.32 in 10.0 mi Calm Calm - N/A   Clear
9:15 AM 29.5 °F - 12.7 °F 50% 30.33 in 10.0 mi Calm Calm - N/A   Clear
9:35 AM 30.4 °F - 13.5 °F 50% 30.34 in 10.0 mi Calm Calm - N/A   Clear
9:55 AM 32.9 °F 29.8 °F 13.1 °F 44% 30.34 in 10.0 mi North 3.5 mph - N/A   Clear
10:15 AM 34.3 °F - 12.9 °F 41% 30.34 in 10.0 mi Calm Calm - N/A   Clear
10:35 AM 36.9 °F - 11.8 °F 36% 30.33 in 10.0 mi Calm Calm - N/A   Clear
10:55 AM 38.5 °F - 12.4 °F 34% 30.33 in 10.0 mi Calm Calm - N/A   Clear
11:15 AM 38.7 °F - 12.6 °F 34% 30.33 in 10.0 mi Calm Calm - N/A   Clear
11:35 AM 39.2 °F - 13.6 °F 35% 30.32 in 10.0 mi Calm Calm - N/A   Clear
11:55 AM 40.1 °F 35.3 °F 15.1 °F 36% 30.31 in 10.0 mi ENE 6.9 mph - N/A   Clear
12:15 PM 39.7 °F 34.3 °F 14.2 °F 35% 30.31 in 10.0 mi NE 8.1 mph - N/A   Clear
12:35 PM 41.7 °F - 13.1 °F 31% 30.31 in 10.0 mi Calm Calm - N/A   Clear
12:55 PM 44.4 °F - 13.8 °F 29% 30.30 in 10.0 mi Calm Calm - N/A   Clear
1:15 PM 46.6 °F - 13.3 °F 26% 30.29 in 10.0 mi ENE 4.6 mph - N/A   Clear
1:35 PM 45.9 °F 44.6 °F 13.3 °F 27% 30.29 in 10.0 mi ENE 3.5 mph - N/A   Clear
1:55 PM 46.8 °F - 13.1 °F 26% 30.29 in 10.0 mi Calm Calm - N/A   Clear
2:15 PM 46.8 °F - 12.4 °F 25% 30.29 in 10.0 mi Calm Calm - N/A   Clear
2:35 PM 46.9 °F - 12.4 °F 25% 30.29 in 10.0 mi Calm Calm - N/A   Clear
2:55 PM 48.7 °F - 12.0 °F 23% 30.28 in 10.0 mi Calm Calm - N/A   Clear
3:15 PM 49.1 °F - 12.6 °F 23% 30.28 in 10.0 mi Calm Calm - N/A   Clear
3:35 PM 49.5 °F - 13.3 °F 24% 30.29 in 10.0 mi Calm Calm - N/A   Clear
3:55 PM 49.6 °F - 13.5 °F 24% 30.29 in 10.0 mi Calm Calm - N/A   Clear
4:15 PM 49.1 °F - 12.7 °F 23% 30.29 in 10.0 mi Calm Calm - N/A   Clear
4:35 PM 49.1 °F - 13.3 °F 24% 30.29 in 10.0 mi Calm Calm - N/A   Clear
4:55 PM 49.1 °F - 13.3 °F 24% 30.29 in 10.0 mi Calm Calm - N/A   Clear
5:15 PM 48.2 °F - 13.1 °F 24% 30.29 in 10.0 mi Calm Calm - N/A   Clear
5:35 PM 47.7 °F - 13.1 °F 25% 30.30 in 10.0 mi Calm Calm - N/A   Clear
5:55 PM 47.7 °F - 13.1 °F 25% 30.30 in 10.0 mi Calm Calm - N/A   Clear
6:15 PM 47.3 °F - 13.5 °F 26% 30.31 in 10.0 mi Calm Calm - N/A   Clear
6:35 PM 46.9 °F - 13.1 °F 26% 30.31 in 10.0 mi Calm Calm - N/A   Clear
6:55 PM 45.9 °F - 12.2 °F 26% 30.31 in 10.0 mi Calm Calm - N/A   Clear
7:15 PM 45.3 °F - 12.6 °F 27% 30.31 in 10.0 mi Calm Calm - N/A   Clear
7:35 PM 44.8 °F - 11.3 °F 26% 30.31 in 10.0 mi Calm Calm - N/A   Clear
7:55 PM 45.7 °F - 10.4 °F 24% 30.31 in 10.0 mi Calm Calm - N/A   Clear
8:15 PM 44.8 °F - 10.0 °F 24% 30.31 in 10.0 mi Calm Calm - N/A   Clear
8:35 PM 45.0 °F - 9.3 °F 23% 30.32 in 10.0 mi Calm Calm - N/A   Clear
8:55 PM 44.6 °F - 10.0 °F 25% 30.33 in 10.0 mi Calm Calm - N/A   Clear
9:15 PM 41.0 °F - 10.6 °F 29% 30.33 in 10.0 mi Calm Calm - N/A   Clear
9:35 PM 40.5 °F - 10.2 °F 29% 30.34 in 10.0 mi Calm Calm - N/A   Clear
9:55 PM 41.9 °F - 7.0 °F 24% 30.33 in 10.0 mi Calm Calm - N/A   Clear
10:15 PM 45.0 °F - 5.5 °F 20% 30.35 in 10.0 mi Calm Calm - N/A   Clear
10:35 PM 39.4 °F - 8.6 °F 28% 30.34 in 10.0 mi Calm Calm - N/A   Clear
10:55 PM 36.3 °F 33.7 °F 12.0 °F 37% 30.35 in 10.0 mi ENE 3.5 mph - N/A   Clear
11:15 PM 36.0 °F - 12.7 °F 38% 30.34 in 10.0 mi Calm Calm - N/A   Clear
11:35 PM 38.8 °F - 8.8 °F 29% 30.34 in 10.0 mi Calm Calm - N/A   Clear
11:55 PM 36.7 °F - 11.8 °F 36% 30.34 in 10.0 mi Calm Calm - N/A   Clear